User: anonymous   Login
Location: UBC Liquid-Mirror Observatory
(49.2876°N, 122.5728°W)
Time: 20:57:30
(UTC-07:00)
Language:

Cosmos 1315 - Orbit

View from above orbital plane
View from above orbital plane
View from above satellite
View from above satellite

Ground track
Ground track

The orbit data is extracted from the following two-line orbital elements,

1 12903U 81103A   15146.90673448  .00075089  00000-0  40717-3 0  9997
2 12903 081.1198 081.4633 0007474 117.5607 307.0406 15.79740405843859
Epoch (UTC): 26 May 2015 21:45:41
Eccentricity: 0.0007474
inclination: 81.1198°
perigee height: 326 km
apogee height: 336 km
right ascension of ascending node: 81.4633°
argument of perigee: 117.5607°
revolutions per day: 15.79740405
mean anomaly at epoch: 307.0406°
orbit number at epoch: 84385

The dashed part of the orbit path shows where the satellite is in the earth's shadow,  

DLR